Flag for Faroe Islands Weather past 2 weeks in Tórshavn, Faroe Islands, Faroe Islands

Now
52 °F

Passing clouds.


Feels Like: 48 °F
Forecast: 49 / 54 °F
Wind: 10 mph from Southeast

Location: Soervaag / Vagar

Current Time: Aug 29, 2015 at 2:17:55 AM

Latest Report: Aug 29, 2015 at 1:50 AM


Visibility: N/A

Pressure: 29.59 "Hg

Humidity: 94%

Dew point: 50 °F

Location of TórshavnLocation

Historic Weather in Tórshavn — Graph

°F

Tórshavn temperature yesterday

Maximum temperature yesterday: 54 °F (at 8:50 AM)
Minimum temperature yesterday: 50 °F (at 5:50 AM)
Average temperature yesterday: 53 °F

Past Weeks' High & Low Weather Summary

 TemperatureHumidityPressure
High68 °F (Aug 25, 9:50 AM)100% (Aug 14, 1:50 AM)30.18 "Hg (Aug 14, 1:50 AM)
Low45 °F (Aug 15, 3:20 AM)43% (Aug 25, 9:50 AM)29.15 "Hg (Aug 27, 5:20 AM)
Average53 °F90%29.73 "Hg
* Reported Aug 14 1:20 AM — Aug 29 1:20 AM, Tórshavn, Weather by CustomWeather, © 2015

Note: Actual official high and low records may vary slightly from our data, if they occured in-between our weather recording intervals... More about our weather records

Advertising

Tórshavn weather history for previous 24 hours

 ConditionsComfort  
Time TempWeatherWind HumidityBarometerVisibility
1:20 AM
Sat, Aug 29
52 °FPassing clouds.8 mph94%29.59 "HgN/A
12:50 AM52 °FPassing clouds.8 mph94%29.59 "HgN/A
12:20 AM52 °FOvercast.9 mph94%29.59 "HgN/A
11:50 PM
Fri, Aug 28
52 °FPassing clouds.8 mph94%29.59 "HgN/A
11:20 PM52 °FPassing clouds.9 mph94%29.59 "HgN/A
10:50 PM52 °FSprinkles. Passing clouds.9 mph94%29.59 "HgN/A
10:20 PM54 °FPassing clouds.13 mph94%29.59 "HgN/A
9:50 PM52 °FPartly sunny.14 mph94%29.56 "HgN/A
9:20 PM52 °FPartly sunny.14 mph100%29.56 "HgN/A
8:50 PM52 °FPartly sunny.14 mph100%29.56 "HgN/A
8:20 PM52 °FPartly sunny.12 mph100%29.56 "HgN/A
7:50 PM52 °FPartly sunny.13 mph100%29.56 "HgN/A
7:20 PM54 °FBroken clouds.14 mph94%29.56 "HgN/A
6:50 PM54 °FPartly sunny.15 mph94%29.53 "HgN/A
6:20 PM54 °FPartly sunny.14 mph94%29.53 "HgN/A
5:50 PM54 °FPartly sunny.13 mph94%29.53 "HgN/A
5:20 PM54 °FPartly sunny.14 mph94%29.53 "HgN/A
4:50 PM54 °FPartly sunny.13 mph94%29.53 "HgN/A
4:20 PM54 °FPartly sunny.14 mph88%29.53 "HgN/A
3:50 PM54 °FPartly sunny.14 mph88%29.53 "HgN/A
3:20 PM54 °FPartly sunny.12 mph94%29.53 "HgN/A
2:50 PM54 °FPartly sunny.12 mph94%29.53 "HgN/A
2:20 PM54 °FPartly sunny.12 mph94%29.50 "HgN/A
1:50 PM54 °FPartly sunny.13 mph94%29.50 "HgN/A
1:20 PM54 °FPartly sunny.16 mph94%29.50 "HgN/A
12:50 PM54 °FMore clouds than sun.16 mph94%29.50 "HgN/A
12:20 PM54 °FPartly sunny.16 mph94%29.47 "HgN/A
11:50 AM54 °FPartly sunny.15 mph94%29.47 "HgN/A
11:20 AM54 °FSprinkles. Partly sunny.13 mph94%29.47 "HgN/A
10:50 AM54 °FPartly sunny.12 mph94%29.47 "HgN/A
10:20 AM54 °FPartly sunny.12 mph94%29.47 "HgN/A
9:50 AM54 °FPartly sunny.10 mph88%29.45 "HgN/A
9:20 AM54 °FPartly sunny.12 mph94%29.45 "HgN/A
8:50 AM54 °FPartly sunny.9 mph94%29.45 "HgN/A
8:20 AM52 °FPartly sunny.12 mph94%29.45 "HgN/A
7:50 AM52 °FPartly sunny.9 mph94%29.45 "HgN/A
7:20 AM52 °FPartly sunny.10 mph94%29.45 "HgN/A
6:50 AM52 °FPassing clouds.9 mph94%29.42 "HgN/A
6:20 AM52 °FPassing clouds.9 mph94%29.42 "HgN/A
5:50 AM50 °FPassing clouds.8 mph100%29.42 "HgN/A
4:50 AM52 °FDrizzle. Mostly cloudy.9 mph94%29.42 "HgN/A
4:20 AM52 °FPassing clouds.9 mph94%29.39 "HgN/A
3:50 AM52 °FLow clouds.9 mph94%29.39 "HgN/A
3:20 AM52 °FSprinkles. Low clouds.9 mph100%29.39 "HgN/A
2:50 AM52 °FPassing clouds.8 mph100%29.39 "HgN/A
2:20 AM52 °FLow clouds.9 mph94%29.39 "HgN/A
Weather by CustomWeather, © 2015

See weather overviewHow to use our weather pages